Regional Weather Roundup
Issued by NWS Wakefield, VA

Home | Current Version | Previous Version | Graphics & Text | Print | Product List | Glossary On
Versions: 1 2 3 4 5 6 7 8 9 10 11 12 13 14 15 16 17 18 19 20 21 22 23 24 25 26 27 28 29 30 31 32 33 34 35 36 37 38 39 40 41 42 43 44 45 46 47 48 49 50
000
ASUS41 KAKQ 231415
RWRAKQ

REGIONAL WEATHER ROUNDUP
NATIONAL WEATHER SERVICE WAKEFIELD VA
900 AM EST TUE JAN 23 2018

Note: "fair" indicates few or no clouds below 12,000 feet with no
significant weather and/or obstructions to visibility. * = Denotes
station may not report precipitation (e.g., rain,snow,etc.),
thunder or fog.

VAZ042-051-052>054-056-231500-
NORTHERN VIRGINIA

CITY           SKY/WX    TMP DP  RH WIND       PRES   REMARKS
WASH NATIONAL  CLOUDY    57  56  96 S9        29.65S
DULLES         PTSUNNY   58  58 100 SW8       29.65R
FORT BELVOIR   CLOUDY    61  57  88 S7        29.66R
QUANTICO       NOT AVBL
FREDERICKSBRG* PTSUNNY   62  62 100 SW8       29.66S
STAFFORD*      PTSUNNY   62  62 100 S6        29.70R
WARRENTON      PTSUNNY   54  51  89 CALM      29.66R
CULPEPER*      FAIR      55  53  94 CALM      29.67S
MANASSAS*      PTSUNNY   60  57  89 SW9       29.66R
LEESBURG*      CLOUDY    52  52 100 W13G18    29.68R
WINCHESTER     PTSUNNY   50  50 100 CALM      29.67F
FRONT ROYAL*   PTSUNNY   52  52 100 MISG      29.64R
LURAY*         PTSUNNY   55  54  94 W5        29.65F
$$

VAZ048-049-060>072-079>083-231500-
CENTRAL AND SOUTH CENTRAL VIRGINIA

CITY           SKY/WX    TMP DP  RH WIND       PRES   REMARKS
RICHMOND       HVY RAIN  61  60  97 S12       29.71S FOG
CHESTERFIELD*  NOT AVBL
PETERSBURG*    LGT RAIN  61  59  94 S7        29.72F
HANOVER        LGT RAIN  61  60  97 S10       29.71S FOG
TAPPAHANNOCK*  RAIN      61  61  97 S9        29.71F
QUINTON*       CLOUDY    60  60 100 S3        29.71F
CHARLOTTSVILLE FAIR      56  55  97 S3        29.66F
GORDONSVILLE*  FAIR      59  59  98 SW9       29.67R
ORANGE*        PTSUNNY   59  55  88 SW10      29.67R
LOUISA*        CLOUDY    61  59  94 SW8       29.72R
BUMPASS*       CLOUDY    61  60  96 S7        29.68R
FARMVILLE*     CLOUDY   N/A N/A N/A SW9G17    29.69R
CREWE*         CLOUDY    62  62 100 SW5G16    29.71S
FORT PICKETT*  CLOUDY   N/A N/A N/A SW8       29.73R
CHASE CITY*    CLOUDY    60  60 100 SW6       29.74S
CLARKSVILLE*   CLOUDY    61  61 100 SW7       29.74R
SOUTH HILL*    CLOUDY    61  61 100 S13       29.79S
LAWRENCEVILLE* CLOUDY    61  60  97 SW8       29.73F
EMPORIA*         N/A    N/A N/A N/A S9        29.75F
$$

VAZ088>098-231500-
SOUTHEAST VIRGINIA

CITY           SKY/WX    TMP DP  RH WIND       PRES   REMARKS
NORFOLK        LGT RAIN  66  61  84 S25G37    29.76F
VIRGINIA BEACH CLOUDY    66  59  78 S21G32    29.79S
NORFOLK NAVAL  LGT RAIN  67  59  75 S16G29    29.76F
WEST POINT*    CLOUDY    60  59  95 S6        29.74F
SALUDA*        CLOUDY    58  58 100 MISG      29.73F
NEWPORT NEWS   LGT RAIN  64  59  83 S23G36    29.74F
LANGLEY AFB    LGT RAIN  66  61  82 S28G40    29.74F
FORT EUSTIS    LGT RAIN  62  58  89 SW13G24   29.72S FOG
WILLIAMSBURG*  CLOUDY    63  61  94 CALM      29.74S
HR EXEC AP*    CLOUDY    64  61  88 S16G30    29.77F FOG
FRANKLIN*      RAIN      63  61  94 S13G21    29.75F
US460-WAKEFLD  HVY RAIN  62  62 100 S10G17    29.73F VSB 1/2
$$

VAZ020-022-025-037-045-231500-
WEST CENTRAL AND SOUTHWEST VIRGINIA

CITY           SKY/WX    TMP DP  RH WIND       PRES   REMARKS
STAUNTON*      FAIR      53  51  92 S8        29.69F
WAYNESBORO*    PTSUNNY   54  52  93 W7        29.68S
HOT SPRINGS VA CLOUDY    46  45  93 W22G35    29.70S
LYNCHBURG      PTSUNNY   59  55  87 SW8       29.70S
DANVILLE       FAIR      61  60  97 SW12      29.73R
SOUTH BOSTON*  CLOUDY    61  60  96 S7        29.73S
MARTINSVILLE   FAIR      60  55  83 SW7       29.75S
ROANOKE        FAIR      51  49  92 S3        29.73S
BLACKSBURG     PTSUNNY   52  48  86 W5        29.76R
DUBLIN*        PTSUNNY   51  46  80 W7        29.75R
MARION*        CLOUDY    49  32  52 W20G33    29.80R
HILLSVILLE*    FAIR      49  48  97 CALM      29.75R
RICHLANDS*     FAIR      44  30  57 W15G21    29.79R
WISE*          FAIR      43  32  65 SW17G25   29.81R
ABINGDON*      FAIR      47  30  52 W16G26    29.83R
$$

MDZ021>025-VAZ099-100-231500-
SOUTHERN MARYLAND AND THE DELMARVA PENINSULA

CITY           SKY/WX    TMP DP  RH WIND       PRES   REMARKS
PATUXENT RIVER NOT AVBL
BAY BRIDGE APT CLOUDY    54  54 100 S20G30    29.66F
LEONARDTOWN    CLOUDY    59  57  94 S10G18    29.72R
DOVER          LGT RAIN  59  59 100 S15       29.69S FOG
GEORGETOWN     LGT RAIN  62  59  90 S23G35    29.72F
EASTON         MOSUNNY  N/A N/A N/A S24G38    29.72F
CAMBRIDGE        N/A     57  55  94 S13G28    29.73R FOG
SALISBURY      LGT RAIN  60  59  96 S16G26    29.74F
OCEAN CITY     HVY RAIN  49  49 100 SW9G18    29.78F FOG
WALLOPS ISLAND LGT RAIN  52  52 100 S20G29    29.78F FOG
ACCOMACK*      LGT RAIN  55  54  97 S13G18    29.75F
$$

NCZ012>017-030>032-231500-
NORTH CENTRAL AND EASTERN NORTH CAROLINA

CITY           SKY/WX    TMP DP  RH WIND       PRES   REMARKS
ROANOKE RAPIDS RAIN      64  63  94 S18G28    29.74F
RALEIGH        CLOUDY    63  62  97 SW20G25   29.78R
ELIZABETH CITY LGT RAIN  65  65 100 S16       29.82F
AHOSKIE*       RAIN      64  64 100 S12G20    29.78S
EDENTON*       LGT RAIN  63  60  91 S18       29.83S
CURRITUCK*     LGT RAIN  63  59  88 S12G23    29.82S
KILL DEVIL HLS PTSUNNY  N/A N/A N/A S8G18     29.85F
MANTEO         PTSUNNY   57  56  96 S20G28    29.87F
CAPE HATTERAS  NOT AVBL
TARBORO*       NOT AVBL
GOLDSBORO      PTSUNNY   66  63  90 SW15G25   29.80R
WASHINGTON     LGT RAIN  67  64  88 S14G29    29.83F
GREENVILLE     LGT RAIN  66  64  94 S25G32    29.83F
NEW BERN       HVY RAIN  65  65 100 SW15G26   29.87R VSB 1/4
WILMINGTON     CLOUDY    66  63  90 SW16G29   29.90S
$$

VAZ048-231500-
ELSEWHERE

CITY           SKY/WX    TMP DP  RH WIND       PRES   REMARKS
HARRISBURG PA  RAIN      46  46 100 NW6       29.66R VSB 1
BALTIMORE      CLOUDY    57  57 100 SE5       29.64R
ANNAPOLIS      FOG       48  47  96 S16G23    29.66F VSB 1/4
ANDREWS AFB    CLOUDY    61  58  92 S15G25    29.64S
PHILADELPHIA   LGT RAIN  57  54  89 S16G22    29.68F
HENDERSON NC   CLOUDY    60  58  93 SW13      29.75S
GREENSBORO     PTSUNNY   61  59  93 SW18G28   29.75R
ROCKY MOUNT    CLOUDY    65  64  97 S17G25    29.78S
$$

VAZ100-231500-
MARINE

STATION/POSITION TIME  TEMP    WIND        PRES    WAVE   SWELL
                       AIR SEA DIR/SP/G            HT/PER HT/PER
                 (UTC) (F)     (DEG/KT/KT) (MB)    (FT/S) (FT/S)
BRANDYWINE LGT   1336   47     180/ 24/ 28 1006.7F
CAPE MAY NJ      1348   49 36  170/ 21/ 31 1005.8F
LEWES DE         1348   59 36  190/ 11/ 21 1006.4F
15NM E FENWICK I 1350   48 38  180/ 16/ 17 1008.9F   3/ 4
OCEAN-CITY-INLET 1348   46 38  220/ 15/ 18 1009.0F
WACHAPREAGUE VA  1348   49 42  210/  6/  9 1007.9F
THOMAS POINT MD  1400   45 34  170/ 22/ 23   N/A
COVE POINT MD    1348   53     190/ 20/ 21 1006.5F
SOLOMONS ISLAND  1348   56 36  180/ 16/ 21 1005.4F
BISHOPS HEAD MD  1348   46 37  160/ 19/ 22 1006.7R
PINEY POINT MD   1336          210/ 17/ 19   N/A
CAMBRIDGE MD     1348   56 35              1006.9R
LEWISETTA VA     1348   59 39  210/ 14/ 18 1006.2R
RAPPAHANNOCK LGT 1348          150/ 18/ 20 1007.2F
YORK RVR RNG VA  1348   56     200/ 26/ 29 1006.9F
YORKTOWN VA      1348   65 37  200/ 18/ 24 1006.1F
DOMINION TERM VA 1348   61     190/ 24/ 33 1007.3F
KIPTOPEKE VA     1348      38  170/ 20/ 22   N/A
CAPE HENRY VA    1348   66     180/ 16/ 27   N/A
WILLOUBY STN VA  1336          180/ 28/ 33 1006.7F
S CRANEY ISL VA  1348   62     190/ 22/ 34 1007.3F
CAPE HENRY BUOY  1400      40                N/A     3/ 4
CAPE CHARLES BUO 1351      39                N/A     3/ 4
64NM E OF VA BCH 1350   64 58  180/ 21/ 25 1010.8F   6/ 6   2/12
DUCK PIER NC     1348   63 41  180/ 24/ 28 1009.6F
44100 DUCK FRF   1345      40                N/A     4/ 7
44056 DUCK FRF   1400      42                N/A     4/ 7
OREGON INLET NC  1336   54 44  170/ 14/ 17 1011.8F
HATTERAS NC      1348   67 54  190/  7/ 14 1012.5F
DIAMOND SHLS NC  1350   72 70  190/ 29/ 39 1013.4F  10/ 7
CAPE LOOKOUT NC  1400          190/ 17/ 19 1013.0F
$$



USA.gov is the U.S. government's official web portal to all federal, state and local government web resources and services.